Flag for Germany Past Weather in Vaihingen an der Enz, Baden-Württemberg, Germany — Yesterday and Last 2 Weeks

Now
64 °F

Clear.


Feels Like: 64 °F
Forecast: 58 / 76 °F
Wind: 2 mph from North

Location: Stuttgart-Echterdingen

Current Time: Jul 27, 2016 at 3:21:42 AM

Latest Report: Jul 27, 2016 at 2:50 AM


Visibility: 10 mi

Pressure: 30.09 "Hg

Humidity: 94%

Dew Point: 63 °F

Location of Vaihingen an der EnzLocation

Past Weather in Vaihingen an der Enz — Graph

°F

Vaihingen an der Enz Temperature Yesterday

Maximum temperature yesterday: 81 °F (at 1:50 PM)
Minimum temperature yesterday: 64 °F (at 3:20 AM)
Average temperature yesterday: 73 °F

High & Low Weather Summary for the Past Weeks

 TemperatureHumidityPressure
High91 °F (Jul 20, 4:20 PM)100% (Jul 18, 6:20 AM)30.33 "Hg (Jul 18, 6:20 AM)
Low48 °F (Jul 15, 5:50 AM)28% (Jul 20, 4:50 PM)29.92 "Hg (Jul 12, 8:50 PM)
Average68 °F72%30.11 "Hg
* Reported Jul 12 2:20 AM — Jul 27 2:20 AM, Vaihingen an der Enz, Weather by CustomWeather, © 2016

Note: Actual official high and low records may vary slightly from our data, if they occured in-between our weather recording intervals... More about our weather records

Advertising

Vaihingen an der Enz Weather History for the Previous 24 Hours

Scroll right to see more
 ConditionsComfort  
Time TempWeatherWind HumidityBarometerVisibility
2:20 AM
Wed, Jul 27
66 °FPassing clouds.3 mph94%30.09 "HgN/A
1:50 AM66 °FClear.2 mph88%30.09 "Hg10 mi
1:20 AM66 °FClear.2 mph83%30.09 "Hg10 mi
12:50 AM66 °FPassing clouds.3 mph83%30.09 "HgN/A
12:20 AM68 °FThundershowers. Partly cloudy.6 mph78%30.12 "HgN/A
11:50 PM
Tue, Jul 26
68 °FThundershowers. Partly cloudy.13 mph78%30.12 "HgN/A
11:20 PM72 °FThundershowers. Partly cloudy.8 mph78%30.12 "HgN/A
10:50 PM72 °FMild.7 mph78%30.12 "HgN/A
10:20 PM72 °FThundershowers. Partly cloudy.12 mph78%30.09 "HgN/A
9:50 PM73 °FPartly sunny.7 mph69%30.09 "HgN/A
9:20 PM73 °FPartly sunny.8 mph69%30.09 "HgN/A
8:50 PM75 °FPartly sunny.8 mph65%30.09 "HgN/A
8:20 PM77 °FPassing clouds.7 mph61%30.09 "HgN/A
7:50 PM79 °FPassing clouds.10 mph58%30.07 "HgN/A
7:20 PM81 °FPassing clouds.6 mph48%30.07 "HgN/A
6:50 PM81 °FPassing clouds.9 mph45%30.07 "HgN/A
6:20 PM81 °FPassing clouds.6 mph45%30.07 "HgN/A
5:50 PM81 °FPassing clouds.5 mph48%30.07 "HgN/A
5:20 PM81 °FPassing clouds.2 mph48%30.07 "HgN/A
4:50 PM81 °FPassing clouds.6 mph48%30.09 "HgN/A
4:20 PM81 °FPassing clouds.5 mph45%30.09 "HgN/A
3:50 PM79 °FPassing clouds.6 mph58%30.09 "HgN/A
3:20 PM75 °FScattered clouds.10 mph69%30.09 "HgN/A
2:50 PM75 °FThunderstorms. Scattered clouds.10 mph65%30.09 "HgN/A
2:20 PM79 °FThundershowers. Scattered clouds.5 mph54%30.09 "HgN/A
1:50 PM81 °FPartly sunny.6 mph51%30.09 "HgN/A
1:20 PM79 °FScattered clouds.3 mph58%30.12 "HgN/A
12:50 PM79 °FScattered clouds.3 mph54%30.12 "HgN/A
12:20 PM79 °FScattered clouds.6 mph54%30.12 "HgN/A
11:50 AM77 °FScattered clouds.2 mph61%30.12 "HgN/A
11:20 AM77 °FPassing clouds.3 mph57%30.12 "HgN/A
10:50 AM75 °FPassing clouds.2 mph69%30.12 "HgN/A
10:20 AM73 °FPassing clouds.3 mph69%30.12 "HgN/A
9:50 AM73 °FPassing clouds.2 mph74%30.15 "HgN/A
9:20 AM72 °FPassing clouds.2 mph73%30.15 "HgN/A
8:50 AM72 °FPassing clouds.2 mph73%30.15 "HgN/A
8:20 AM70 °FPassing clouds.1 mph78%30.15 "HgN/A
7:50 AM66 °FPassing clouds.1 mph88%30.15 "HgN/A
7:20 AM66 °FPassing clouds.1 mph83%30.12 "HgN/A
6:50 AM66 °FScattered clouds.2 mph83%30.12 "HgN/A
6:20 AM64 °FPassing clouds.2 mph88%30.12 "HgN/A
5:50 AM64 °FPassing clouds.2 mph88%30.12 "HgN/A
5:20 AM64 °FPassing clouds.3 mph83%30.12 "HgN/A
4:50 AM64 °FPartly cloudy.1 mph88%30.12 "HgN/A
4:20 AM64 °FPartly cloudy.5 mph88%30.12 "HgN/A
3:50 AM64 °FPassing clouds.1 mph83%30.12 "HgN/A
3:20 AM64 °FPartly cloudy.5 mph78%30.12 "HgN/A
Weather by CustomWeather, © 2016

See weather overviewHow to use our weather pages